Location: Newark
(37.0349°N, 76.3601°W)
Time: 05:15:35
(UTC+00:00)

Envisat - Visible Passes

Search period start: 22 January 2020 00:00
Search period end: 01 February 2020 00:00
Orbit: 764 x 766 km, 98.1° (Epoch: 21 January)

Date Brightness Start Highest point End Pass type
(mag) Time Alt. Az. Time Alt. Az. Time Alt. Az.
22 Jan 3.9 11:27:40 10° NNE 11:32:40 55° E 11:37:37 10° S visible
22 Jan 3.1 22:39:52 10° SSE 22:44:49 58° ENE 22:49:48 10° N visible
23 Jan 6.1 00:21:30 10° WSW 00:24:10 14° W 00:26:52 10° WNW visible
23 Jan 5.5 10:51:40 10° NE 10:55:43 24° E 10:59:45 10° SSE visible
23 Jan 4.8 23:42:34 10° SSW 23:47:07 33° W 23:51:42 10° NNW visible
24 Jan 3.2 23:05:11 10° S 23:10:15 79° WSW 23:15:21 10° NNW visible
25 Jan 4.4 11:16:30 10° NNE 11:21:20 43° E 11:26:08 10° S visible
26 Jan 5.8 00:09:18 10° SW 00:12:47 19° W 00:16:17 10° NW visible
26 Jan 5.9 10:40:51 10° NE 10:44:21 18° E 10:47:49 10° SE visible
26 Jan 4.3 23:30:59 10° S 23:35:47 43° W 23:40:37 10° NNW visible
27 Jan 3.2 11:41:45 10° NNE 11:46:52 79° ESE 11:51:56 10° S visible
27 Jan 3.0 22:53:54 10° SSE 22:58:58 81° ENE 23:04:04 10° N visible
28 Jan 4.9 11:05:25 10° NNE 11:10:00 33° E 11:14:33 10° SSE visible
28 Jan 5.5 23:57:21 10° SSW 00:01:24 24° W 00:05:27 10° NW visible
29 Jan 6.2 10:30:16 10° ENE 10:32:56 14° E 10:35:36 10° ESE visible
29 Jan 3.8 23:19:29 10° S 23:24:27 55° W 23:29:27 10° NNW visible
30 Jan 3.7 11:30:31 10° NNE 11:35:34 61° E 11:40:34 10° S visible
31 Jan 6.3 00:24:52 10° WSW 00:27:07 13° W 00:29:22 10° WNW visible
31 Jan 5.4 10:54:25 10° NE 10:58:39 26° E 11:02:51 10° SSE visible
31 Jan 5.0 23:45:36 10° SSW 23:50:02 30° W 23:54:30 10° NW visible
